Regional Weather Roundup
Issued by NWS Kansas City/Pleasant Hill, MO

Home | Current Version | Previous Version | Text Only | Print | Product List | Glossary On
Versions: 1 2 3 4 5 6 7 8 9 10 11 12 13 14 15 16 17 18 19 20 21 22 23 24 25 26 27 28 29 30 31 32 33 34 35 36 37 38 39 40 41 42 43 44 45 46 47 48 49 50
000
ASUS43 KEAX 291111
RWREAX

WEATHER ROUNDUP FOR EASTERN KANSAS AND NORTHWEST MISSOURI
NATIONAL WEATHER SERVICE KANSAS CITY/PLEASANT HILL MO
600 AM CDT TUE JUL 29 2014

KSZ040-057-103>105-MOZ028-029-037-043-291200-
...KANSAS CITY METROPOLITAN AREA...

CITY           SKY/WX    TMP DP  RH WIND       PRES   REMARKS
K.C. INTL      CLEAR     60  57  89 NW6       30.17R
K.C. DOWNTOWN  CLEAR     63  59  87 CALM      30.16R
LEES SUMMIT    CLEAR     59  57  93 CALM      30.17S
OLATHE - IXD   CLEAR     59  56  89 NW6       30.18R
OLATHE - OJC   CLEAR     61  58  90 CALM      30.16S
LAWRENCE       CLEAR     56  53  90 NW6       30.18R

$$

MOZ001>008-011>017-020>025-030>033-038>040-044>046-053-054-291200-
...NORTHERN AND CENTRAL MISSOURI...

CITY           SKY/WX    TMP DP  RH WIND       PRES   REMARKS
ST. JOSEPH     CLEAR     54  53  97 CALM      30.18R
MOSBY          MOSUNNY   55  55 100 CALM      30.16R
WARRENSBURG    CLEAR     55  55 100 CALM      30.16S
WHITEMAN AFB   CLEAR     56  48  74 CALM      30.16R
CLINTON        CLEAR     55  55 100 CALM      30.16S
SEDALIA        CLEAR     59  55  87 CALM      30.16S
WARSAW         NOT AVBL
MARSHALL       CLEAR     61  61 100 CALM      30.17S
CHILLICOTHE      N/A     57  55  93 CALM      30.17S
MOBERLY        CLEAR     57  52  82 W3        30.17S
KIRKSVILLE     FOG       54  53  97 CALM      30.16S VSB 1/4

$$

MOZ041-047>049-056>058-063>065-088>090-097-291200-
...EASTERN AND SOUTHERN MISSOURI...

CITY           SKY/WX    TMP DP  RH WIND       PRES   REMARKS
ST. LOUIS INTL CLEAR     60  54  80 W3        30.14S
SPIRIT OF STL  CLEAR     54  52  93 CALM      30.13S
COLUMBIA       CLEAR     57  54  89 NW3       30.16S
JEFFERSON CITY PTCLDY    58  55  90 CALM      30.16S
MEXICO         CLEAR    N/A N/A N/A W5        30.15S
HANNIBAL       CLEAR     57  54  88 NW3       30.15S
ROLLA          CLEAR     54  50  86 CALM      30.15R
LEBANON        CLEAR     57  52  82 CALM      30.18S
OSAGE BEACH    PTCLDY    55  52  88 CALM      30.16S
SPRINGFIELD    CLEAR     59  54  83 CALM      30.17R
BRANSON        CLEAR     55  55 100 CALM      30.18S
NEVADA         FOG       55  55 100 CALM      30.18S VSB 1/2
JOPLIN         CLEAR     58  57  97 CALM      30.17S
WEST PLAINS    CLEAR     56  53  90 CALM      30.17S

$$

IAZ060-094-KSZ022-034>040-054-083-096-NEZ052-066-093-291200-
...KANSAS...SOUTHEAST NEBRASKA AND IOWA...

CITY           SKY/WX    TMP DP  RH WIND       PRES   REMARKS
TOPEKA         MOCLDY    62  58  86 NW3       30.19R
MANHATTAN      CLOUDY    65  57  75 CALM      30.18S
EMPORIA        CLOUDY    62  58  86 CALM      30.18S
CHANUTE        MOCLDY    63  58  83 CALM      30.18R
WICHITA        PTCLDY    66  57  72 E6        30.18R
OMAHA          CLEAR     56  54  93 NW5       30.19R
LINCOLN        CLEAR     55  51  86 NW5       30.22S
FALLS CITY     CLEAR     54  52  93 N3        30.18R
LAMONI         CLEAR     58  56  93 NW3       30.16S
DES MOINES     PTCLDY    59  54  83 NW5       30.15F

$$




USA.gov is the U.S. government's official web portal to all federal, state and local government web resources and services.